Atlanta Fulton, GA

9:49 PM EST on November 14, 2019 (GMT -0500)
Fulton County-Brown

Weather History for KFTY - September, 2019

Change the Weather History Date:

Sunday, September 8, 2019

  Actual Average Record
Temperature  
Mean Temperature 80 °F 75 °F  
Max Temperature 96 °F 85 °F 93 °F (1999)
Min Temperature 63 °F 65 °F 51 °F (2017)
Degree Days  
Heating Degree Days 0 0  
Month to date heating degree days 0 0  
Since 1 July heating degree days 0 0  
Cooling Degree Days 15 10  
Month to date cooling degree days 129 88  
Year to date cooling degree days 1845 1525  
Growing Degree Days 30 (Base 50)    
Moisture  
Dew Point 59 °F    
Average Humidity 57    
Maximum Humidity 87    
Minimum Humidity 26    
Precipitation  
Precipitation 0.00 in 0.13 in 2.51 in (1959)
Month to date precipitation 0.00 0.96  
Year to date precipitation 30.29 36.38  
Sea Level Pressure  
Sea Level Pressure 29.99 in    
Wind  
Wind Speed 2 mph (North)    
Max Wind Speed 12 mph    
Max Gust Speed 14 mph    
Visibility 10 miles    
Events      
T = Trace of Precipitation, MM = Missing Value Source: NWS Daily Summary

Daily Weather History Graph

Daily Weather History Graph

Search for Another Location

Airport or City:

Astronomy

Sep. 08, 2019 Rise Set
Actual Time 7:16 AM EDT 7:54 PM EDT
Civil Twilight 6:51 AM EDT 8:19 PM EDT
Nautical Twilight 6:21 AM EDT 8:49 PM EDT
Astronomical Twilight 5:51 AM EDT 9:19 PM EDT
Moon 4:49 PM EDT (9/8) 2:08 AM EDT (9/8)
Length of Visible Light 13h 28m
Length of Day
12h 38m
Waxing Gibbous, 75% of the Moon is Illuminated
Sep 8
Waxing Gibbous
Sep 14
Full
Sep 21
Last Quarter
Sep 28
New
Oct 5
First Quarter

Hourly Weather History & Observations

Time (EDT) Temp. Heat Index Dew Point Humidity Pressure Visibility Wind Dir Wind Speed Gust Speed Precip Events Conditions
12:53 AM 79.0 °F - 59.0 °F 50% 29.95 in 10.0 mi Calm Calm - N/A   Clear
1:53 AM 75.9 °F - 60.1 °F 58% 29.95 in 10.0 mi Calm Calm - N/A   Clear
2:53 AM 72.0 °F - 61.0 °F 68% 29.95 in 10.0 mi Calm Calm - N/A   Clear
3:53 AM 69.1 °F - 60.1 °F 73% 29.95 in 10.0 mi Calm Calm - N/A   Clear
4:53 AM 66.0 °F - 61.0 °F 84% 29.95 in 10.0 mi Calm Calm - N/A   Clear
5:53 AM 66.0 °F - 60.1 °F 81% 29.96 in 10.0 mi Calm Calm - N/A   Clear
6:53 AM 64.0 °F - 60.1 °F 87% 29.99 in 10.0 mi Calm Calm - N/A   Clear
7:53 AM 64.0 °F - 60.1 °F 87% 30.01 in 10.0 mi Calm Calm - N/A   Clear
8:53 AM 72.0 °F - 62.1 °F 71% 30.03 in 10.0 mi Calm Calm - N/A   Clear
9:53 AM 78.1 °F - 61.0 °F 56% 30.04 in 10.0 mi Variable 3.5 mph - N/A   Clear
10:53 AM 82.9 °F 83.3 °F 61.0 °F 47% 30.03 in 10.0 mi Variable 3.5 mph - N/A   Clear
11:53 AM 88.0 °F 87.6 °F 60.1 °F 39% 30.01 in 10.0 mi Variable 5.8 mph - N/A   Clear
12:53 PM 89.1 °F 88.8 °F 60.1 °F 38% 29.99 in 10.0 mi Variable 5.8 mph - N/A   Clear
1:53 PM 91.0 °F 90.0 °F 57.9 °F 33% 29.99 in 10.0 mi Variable 3.5 mph - N/A   Clear
2:53 PM 93.9 °F 92.9 °F 57.9 °F 30% 29.99 in 10.0 mi North - - N/A   Clear
3:53 PM 93.9 °F 92.9 °F 57.9 °F 30% 29.98 in 10.0 mi Variable 4.6 mph - N/A   Clear
4:53 PM 95.0 °F 93.4 °F 55.9 °F 27% 29.97 in 10.0 mi North 5.8 mph - N/A   Clear
5:53 PM 93.9 °F 92.2 °F 55.9 °F 28% 29.97 in 10.0 mi Variable 3.5 mph - N/A   Clear
6:53 PM 93.0 °F 91.1 °F 55.0 °F 28% 29.98 in 10.0 mi NNW 3.5 mph - N/A   Clear
7:53 PM 87.1 °F 85.9 °F 57.0 °F 36% 29.99 in 10.0 mi North 3.5 mph - N/A   Clear
8:53 PM 80.1 °F 80.9 °F 60.1 °F 50% 30.00 in 10.0 mi Calm Calm - N/A   Clear
9:53 PM 75.9 °F - 62.1 °F 62% 30.02 in 10.0 mi Calm Calm - N/A   Clear
10:53 PM 73.0 °F - 62.1 °F 68% 30.02 in 10.0 mi Calm Calm - N/A   Clear
11:53 PM 73.0 °F - 60.1 °F 64% 30.03 in 10.0 mi Calm Calm - N/A   Clear